Weather History for Mount Pleasant, SC

Change the Weather History Date:

Tuesday, February 12, 2013

  Actual Average (KCHS) Record (KCHS)
Temperature  
Mean Temperature 56 °F 51 °F  
Max Temperature 60 °F 62 °F 79 °F (1999)
Min Temperature 51 °F 40 °F 12 °F (1973)
Degree Days  
Heating Degree Days 10 14  
Month to date heating degree days 179  
Since 1 July heating degree days 1438  
Cooling Degree Days 0 0  
Month to date cooling degree days 0  
Year to date cooling degree days 2  
Growing Degree Days 6 (Base 50)    
Moisture  
Dew Point 55 °F    
Average Humidity 93    
Maximum Humidity 100    
Minimum Humidity 63    
Precipitation  
Precipitation 4.00 in 0.10 in 1.79 in (2013)
Month to date precipitation 1.28  
Year to date precipitation 4.99  
Sea Level Pressure  
Sea Level Pressure 30.03 in    
Wind  
Wind Speed 4 mph (NW)    
Max Wind Speed 12 mph    
Max Gust Speed -    
Visibility 5 miles    
Events Rain , Thunderstorm    
T = Trace of Precipitation, MM = Missing Value Source: NWS Daily Summary

Daily Weather History Graph

Daily Weather History Graph

Search for Another Location

Airport:

Trip Planner

Search our weather history database for the weather conditions in past years. The results will help you decide how hot, cold, wet, or windy it might be!

Date:

Astronomy

Feb. 12, 2013 Rise Set
Actual Time 7:05 AM EST 6:02 PM EST
Civil Twilight 6:39 AM EST 6:27 PM EST
Nautical Twilight 6:10 AM EST 6:56 PM EST
Astronomical Twilight 5:41 AM EST 7:25 PM EST
Moon 8:12 AM EST (2/12) 8:48 PM EST (2/12)
Length of Visible Light 11h 47m
Length of Day
10h 56m
Waxing Crescent, 7% of the Moon is Illuminated
Feb 12
Waxing Crescent
Feb 17
First Quarter
Feb 25
Full
Mar 4
Last Quarter
Mar 11
New

Hourly Weather History & Observations

Time (EST) Temp. Dew Point Humidity Pressure Visibility Wind Dir Wind Speed Gust Speed Precip Events Conditions
12:15 AM 60.8 °F 60.8 °F 100% 30.08 in 3.0 mi SSW 5.8 mph - 0.08 in Rain Light Rain
12:35 AM 60.8 °F 60.8 °F 100% 30.08 in 1.8 mi SW 6.9 mph - 0.15 in Rain Rain
12:55 AM 60.8 °F 60.8 °F 100% 30.08 in 3.0 mi WSW 4.6 mph - 0.24 in Rain Light Rain
1:15 AM 60.8 °F 60.8 °F 100% 30.09 in 3.0 mi WSW 4.6 mph - 0.02 in Rain Heavy Rain
1:35 AM 60.8 °F 60.8 °F 100% 30.07 in 4.0 mi SSW 3.5 mph - 0.10 in Rain Light Rain
1:55 AM 60.8 °F 60.8 °F 100% 30.07 in 5.0 mi SSW 4.6 mph - 0.14 in Rain Light Rain
2:15 AM 60.8 °F 60.8 °F 100% 30.06 in 7.0 mi West 3.5 mph - N/A   Overcast
2:35 AM 60.8 °F 60.8 °F 100% 30.05 in 5.0 mi Calm Calm - 0.01 in Rain Rain
2:55 AM 60.8 °F 60.8 °F 100% 30.05 in 4.0 mi SW 3.5 mph - 0.03 in Rain Light Rain
3:15 AM 60.8 °F 60.8 °F 100% 30.05 in 2.5 mi SSW 4.6 mph - 0.05 in Rain Rain
3:35 AM 60.8 °F 60.8 °F 100% 30.04 in 4.0 mi SW 4.6 mph - 0.10 in Rain Light Rain
4:15 AM 60.8 °F 60.8 °F 100% 30.05 in 2.5 mi West 5.8 mph - 0.08 in Rain Heavy Rain
4:35 AM 60.8 °F 60.8 °F 100% 30.02 in 2.0 mi North 3.5 mph - 0.19 in Rain Rain
4:55 AM 60.8 °F 60.8 °F 100% 30.04 in 5.0 mi WNW 6.9 mph - 0.22 in Rain Rain
5:15 AM 60.8 °F 59.0 °F 94% 30.05 in 2.5 mi WNW 5.8 mph - 0.17 in Rain Heavy Rain
5:35 AM 59.0 °F 59.0 °F 100% 30.04 in 3.0 mi WSW 4.6 mph - 0.36 in Rain Rain
5:55 AM 59.0 °F 59.0 °F 100% 30.04 in 3.0 mi WNW 3.5 mph - 0.44 in Rain Rain
6:15 AM 59.0 °F 59.0 °F 100% 30.03 in 5.0 mi Calm Calm - N/A Rain Light Rain
6:35 AM 59.0 °F 59.0 °F 100% 30.03 in 7.0 mi Calm Calm - 0.01 in   Mostly Cloudy
6:55 AM 59.0 °F 59.0 °F 100% 30.05 in 7.0 mi WNW 4.6 mph - 0.01 in   Overcast
7:15 AM 59.0 °F 59.0 °F 100% 30.06 in 10.0 mi WNW 4.6 mph - N/A   Overcast
7:35 AM 59.0 °F 59.0 °F 100% 30.06 in 3.0 mi NNW 4.6 mph - N/A Rain Heavy Rain
7:55 AM 59.0 °F 59.0 °F 100% 30.06 in 1.2 mi NNW 4.6 mph - 0.11 in Rain Heavy Rain
8:15 AM 59.0 °F 59.0 °F 100% 30.07 in 2.5 mi WNW 3.5 mph - 0.02 in Rain Rain
8:35 AM 59.0 °F 57.2 °F 94% 30.07 in 3.0 mi NW 4.6 mph - 0.05 in   Light Drizzle
8:55 AM 59.0 °F 57.2 °F 94% 30.08 in 4.0 mi NW 6.9 mph - 0.06 in   Light Drizzle
9:15 AM 57.2 °F 57.2 °F 100% 30.10 in 2.0 mi NW 8.1 mph - 0.01 in Rain Light Rain
9:35 AM 57.2 °F 57.2 °F 100% 30.10 in 1.2 mi NNW 6.9 mph - 0.05 in Rain Light Rain
9:55 AM 57.2 °F 57.2 °F 100% 30.11 in 1.2 mi NNW 11.5 mph - 0.09 in Rain Light Rain
10:15 AM 51.8 °F 51.8 °F 100% 30.13 in 1.0 mi NNW 10.4 mph - 0.14 in Rain Heavy Rain
10:35 AM 51.8 °F 48.2 °F 88% 30.14 in 2.5 mi NNW 6.9 mph - 0.21 in Rain Light Rain
10:55 AM 51.8 °F 51.8 °F 100% 30.13 in 4.0 mi NW 4.6 mph - 0.24 in   Mostly Cloudy
11:15 AM 53.6 °F 51.8 °F 94% 30.11 in 7.0 mi NNW 4.6 mph - N/A Rain Light Rain
11:35 AM 53.6 °F 51.8 °F 94% 30.10 in 9.0 mi NNW 5.8 mph - 0.01 in   Scattered Clouds
11:55 AM 55.4 °F 51.8 °F 88% 30.08 in 10.0 mi NNW 3.5 mph - 0.01 in   Scattered Clouds
12:15 PM 55.4 °F 51.8 °F 88% 30.07 in 10.0 mi Calm Calm - N/A   Partly Cloudy
12:35 PM 55.4 °F 48.2 °F 77% 30.07 in 10.0 mi NNW 4.6 mph - N/A   Partly Cloudy
12:55 PM 57.2 °F 50.0 °F 77% 30.06 in 10.0 mi Calm Calm - N/A   Partly Cloudy
1:15 PM 59.0 °F 48.2 °F 67% 30.05 in 10.0 mi North 4.6 mph - N/A   Clear
1:35 PM 59.0 °F 50.0 °F 72% 30.05 in 10.0 mi NNE 3.5 mph - N/A   Scattered Clouds
1:55 PM 59.0 °F 51.8 °F 77% 30.04 in 10.0 mi Calm Calm - N/A   Mostly Cloudy
2:15 PM 59.0 °F 50.0 °F 72% 30.03 in 10.0 mi North 3.5 mph - N/A   Mostly Cloudy
2:35 PM 60.8 °F 50.0 °F 68% 30.01 in 10.0 mi Calm Calm - N/A   Mostly Cloudy
2:55 PM 60.8 °F 50.0 °F 68% 30.01 in 10.0 mi Calm Calm - N/A   Scattered Clouds
3:15 PM 60.8 °F 48.2 °F 63% 30.01 in 10.0 mi Calm Calm - N/A   Scattered Clouds
3:35 PM 60.8 °F 48.2 °F 63% 30.00 in 10.0 mi Calm Calm - N/A   Mostly Cloudy
3:55 PM 60.8 °F 51.8 °F 72% 29.98 in 10.0 mi Calm Calm - N/A   Partly Cloudy
4:15 PM 59.0 °F 53.6 °F 82% 29.98 in 10.0 mi SSE 3.5 mph - N/A   Mostly Cloudy
4:35 PM 57.2 °F 51.8 °F 82% 30.00 in 10.0 mi South 6.9 mph - N/A   Overcast
4:55 PM 57.2 °F 51.8 °F 82% 30.00 in 10.0 mi SE 3.5 mph - N/A   Overcast
5:15 PM 55.4 °F 51.8 °F 88% 29.96 in 10.0 mi East 4.6 mph - N/A Rain Light Rain
5:35 PM 55.4 °F 51.8 °F 88% 29.98 in 10.0 mi Calm Calm - N/A   Mostly Cloudy
5:55 PM 55.4 °F 51.8 °F 88% 29.98 in 10.0 mi Calm Calm - N/A   Overcast
6:15 PM 55.4 °F 51.8 °F 88% 30.01 in 10.0 mi Calm Calm - N/A Rain Light Rain
6:35 PM 53.6 °F 53.6 °F 100% 30.01 in 3.0 mi Calm Calm - 0.08 in Rain Rain
6:55 PM 53.6 °F 53.6 °F 100% 30.00 in 2.5 mi Calm Calm - 0.18 in Rain Rain
7:15 PM 53.6 °F 53.6 °F 100% 29.99 in 3.0 mi Calm Calm - 0.03 in Rain , Thunderstorm Light Rain
7:35 PM 53.6 °F 53.6 °F 100% 29.96 in 3.0 mi ESE 5.8 mph - 0.08 in Rain Light Rain
7:55 PM 53.6 °F 51.8 °F 94% 29.97 in 7.0 mi SSE 3.5 mph - 0.09 in Rain Light Rain
8:15 PM 53.6 °F 51.8 °F 94% 29.96 in 3.0 mi ESE 4.6 mph - 0.01 in Rain Light Rain
8:35 PM 51.8 °F 51.8 °F 100% 29.95 in 8.0 mi Calm Calm - 0.02 in   Light Drizzle
9:15 PM 51.8 °F 51.8 °F 100% 29.95 in 2.5 mi East 3.5 mph - 0.02 in   Drizzle
9:35 PM 51.8 °F 51.8 °F 100% 29.93 in 5.0 mi ESE 4.6 mph - 0.03 in   Overcast
9:55 PM 51.8 °F 51.8 °F 100% 29.92 in 2.5 mi NE 3.5 mph - 0.06 in Rain Heavy Rain
10:15 PM 51.8 °F 51.8 °F 100% 29.93 in 1.0 mi North 3.5 mph - 0.37 in Rain Heavy Rain
10:35 PM 51.8 °F 51.8 °F 100% 29.91 in 1.5 mi NE 3.5 mph - 0.81 in Rain Heavy Rain
10:55 PM 51.8 °F 51.8 °F 100% 29.94 in 1.0 mi NNW 6.9 mph - 1.32 in Rain Heavy Rain
11:15 PM 51.8 °F 51.8 °F 100% 29.91 in 1.0 mi NE 6.9 mph - 0.16 in Rain Heavy Rain
11:35 PM 51.8 °F 51.8 °F 100% 29.90 in 1.5 mi North 5.8 mph - 0.50 in Rain Rain
11:55 PM 51.8 °F 51.8 °F 100% 29.91 in 1.5 mi North 5.8 mph - 0.64 in Rain Heavy Rain